Time,TemperatureF,DewpointF,PressureIn,WindDirection,WindDirectionDegrees,WindSpeedMPH,WindSpeedGustMPH,Humidity,HourlyPrecipIn,Conditions,Clouds,dailyrainin,SolarRadiationWatts/m^2,SoftwareType,DateUTC
2013-02-05 00:16:00,12.3,8.0,29.88,NW,311,0.0,-999.0,82,-99.99,,,0.00,0,weatherlink.com 1.10,2013-02-05 05:16:00,
2013-02-05 00:31:00,12.4,8.0,29.88,NW,311,0.0,-999.0,83,-99.99,,,0.00,0,weatherlink.com 1.10,2013-02-05 05:31:00,
2013-02-05 00:46:00,12.4,8.0,29.87,NW,311,0.0,-999.0,83,-99.99,,,0.00,0,weatherlink.com 1.10,2013-02-05 05:46:00,
2013-02-05 01:01:00,12.6,8.0,29.87,NW,311,0.0,-999.0,83,-99.99,,,0.00,0,weatherlink.com 1.10,2013-02-05 06:01:00,
2013-02-05 01:16:00,12.8,9.0,29.87,NW,311,0.0,-999.0,83,-99.99,,,0.00,0,weatherlink.com 1.10,2013-02-05 06:16:00,
2013-02-05 01:31:00,12.8,9.0,29.87,NW,311,0.0,-999.0,83,-99.99,,,0.00,0,weatherlink.com 1.10,2013-02-05 06:31:00,
2013-02-05 01:46:00,13.5,9.0,29.88,NW,311,0.0,-999.0,83,-99.99,,,0.00,0,weatherlink.com 1.10,2013-02-05 06:46:00,
2013-02-05 02:01:00,13.6,9.0,29.87,NW,311,0.0,-999.0,83,-99.99,,,0.00,0,weatherlink.com 1.10,2013-02-05 07:01:00,
2013-02-05 02:16:00,13.6,9.0,29.88,NW,311,0.0,-999.0,83,-99.99,,,0.00,0,weatherlink.com 1.10,2013-02-05 07:16:00,
2013-02-05 02:31:00,14.0,10.0,29.87,NW,311,0.0,-999.0,83,-99.99,,,0.00,0,weatherlink.com 1.10,2013-02-05 07:31:00,
2013-02-05 02:46:00,14.0,10.0,29.88,NW,311,0.0,-999.0,83,-99.99,,,0.00,0,weatherlink.com 1.10,2013-02-05 07:46:00,
2013-02-05 03:01:00,14.0,10.0,29.87,NW,311,0.0,-999.0,83,-99.99,,,0.00,0,weatherlink.com 1.10,2013-02-05 08:01:00,
2013-02-05 03:16:00,-999.0,-99.9,29.86,North,-999,-999.0,-999.0,-999,-99.99,,,0.00,,weatherlink.com 1.10,2013-02-05 08:16:00,
2013-02-05 03:31:00,-999.0,-99.9,29.87,North,-999,-999.0,-999.0,-999,-99.99,,,0.00,,weatherlink.com 1.10,2013-02-05 08:31:00,
2013-02-05 03:46:00,-999.0,-99.9,29.86,North,-999,-999.0,-999.0,-999,-99.99,,,0.00,,weatherlink.com 1.10,2013-02-05 08:46:00,
2013-02-05 04:01:00,-999.0,-99.9,29.86,North,-999,-999.0,-999.0,-999,-99.99,,,0.00,,weatherlink.com 1.10,2013-02-05 09:01:00,
2013-02-05 04:16:00,-999.0,-99.9,29.87,North,-999,-999.0,-999.0,-999,-99.99,,,0.00,,weatherlink.com 1.10,2013-02-05 09:16:00,
2013-02-05 04:31:00,-999.0,-99.9,29.88,North,-999,-999.0,-999.0,-999,-99.99,,,0.00,,weatherlink.com 1.10,2013-02-05 09:31:00,
2013-02-05 04:46:00,-999.0,-99.9,29.88,North,-999,-999.0,-999.0,-999,-99.99,,,0.00,,weatherlink.com 1.10,2013-02-05 09:46:00,
2013-02-05 05:02:00,-999.0,-99.9,29.88,North,-999,-999.0,-999.0,-999,-99.99,,,0.00,,weatherlink.com 1.10,2013-02-05 10:02:00,
2013-02-05 05:16:00,-999.0,-99.9,29.88,North,-999,-999.0,-999.0,-999,-99.99,,,0.00,,weatherlink.com 1.10,2013-02-05 10:16:00,
2013-02-05 05:31:00,9.2,5.0,29.89,NW,311,0.0,-999.0,81,-99.99,,,0.00,0,weatherlink.com 1.10,2013-02-05 10:31:00,
2013-02-05 05:46:00,8.8,4.0,29.90,NW,311,0.0,-999.0,81,-99.99,,,0.00,0,weatherlink.com 1.10,2013-02-05 10:46:00,
2013-02-05 06:01:00,8.8,4.0,29.90,NW,311,0.0,-999.0,82,-99.99,,,0.00,0,weatherlink.com 1.10,2013-02-05 11:01:00,
2013-02-05 06:16:00,8.4,4.0,29.90,NW,311,0.0,-999.0,81,-99.99,,,0.00,0,weatherlink.com 1.10,2013-02-05 11:16:00,
2013-02-05 06:32:00,7.9,3.0,29.91,NW,311,0.0,-999.0,81,-99.99,,,0.00,0,weatherlink.com 1.10,2013-02-05 11:32:00,
2013-02-05 06:47:00,7.4,3.0,29.92,NW,311,0.0,-999.0,81,-99.99,,,0.00,0,weatherlink.com 1.10,2013-02-05 11:47:00,
2013-02-05 07:02:00,7.0,2.0,29.93,NW,311,0.0,-999.0,81,-99.99,,,0.00,0,weatherlink.com 1.10,2013-02-05 12:02:00,
2013-02-05 07:17:00,6.7,2.0,29.93,NW,311,0.0,-999.0,81,-99.99,,,0.00,0,weatherlink.com 1.10,2013-02-05 12:17:00,
2013-02-05 07:32:00,6.3,2.0,29.94,NW,311,0.0,-999.0,81,-99.99,,,0.00,7,weatherlink.com 1.10,2013-02-05 12:32:00,
2013-02-05 07:47:00,6.3,1.0,29.94,NW,311,0.0,-999.0,80,-99.99,,,0.00,19,weatherlink.com 1.10,2013-02-05 12:47:00,
2013-02-05 08:02:00,7.0,3.0,29.94,NW,311,0.0,-999.0,82,-99.99,,,0.00,127,weatherlink.com 1.10,2013-02-05 13:02:00,
2013-02-05 08:17:00,8.1,3.0,29.94,NW,311,0.0,-999.0,81,-99.99,,,0.00,171,weatherlink.com 1.10,2013-02-05 13:17:00,
2013-02-05 08:32:00,9.0,5.0,29.95,NW,311,0.0,-999.0,82,-99.99,,,0.00,238,weatherlink.com 1.10,2013-02-05 13:32:00,
2013-02-05 08:47:00,10.5,6.0,29.95,NW,311,0.0,-999.0,82,-99.99,,,0.00,239,weatherlink.com 1.10,2013-02-05 13:47:00,
2013-02-05 09:02:00,13.3,9.0,29.94,NW,311,0.0,-999.0,81,-99.99,,,0.00,334,weatherlink.com 1.10,2013-02-05 14:02:00,
2013-02-05 09:17:00,14.8,10.0,29.94,NW,311,0.0,-999.0,80,-99.99,,,0.00,292,weatherlink.com 1.10,2013-02-05 14:17:00,
2013-02-05 09:32:00,16.1,10.0,29.94,NW,311,0.0,-999.0,77,-99.99,,,0.00,368,weatherlink.com 1.10,2013-02-05 14:32:00,
2013-02-05 09:47:00,17.0,10.0,29.93,NW,311,0.0,-999.0,75,-99.99,,,0.00,385,weatherlink.com 1.10,2013-02-05 14:47:00,
2013-02-05 10:02:00,18.0,10.0,29.93,NW,311,1.0,-999.0,71,-99.99,,,0.00,401,weatherlink.com 1.10,2013-02-05 15:02:00,
2013-02-05 10:17:00,18.0,10.0,29.94,NW,311,3.0,-999.0,71,-99.99,,,0.00,334,weatherlink.com 1.10,2013-02-05 15:17:00,
2013-02-05 10:32:00,18.0,8.0,29.93,SE,140,0.0,-999.0,64,-99.99,,,0.00,334,weatherlink.com 1.10,2013-02-05 15:32:00,
2013-02-05 10:47:00,18.9,7.0,29.93,NE,52,1.0,-999.0,61,-99.99,,,0.00,470,weatherlink.com 1.10,2013-02-05 15:47:00,
2013-02-05 11:02:00,19.4,7.0,29.93,SE,134,2.0,-999.0,59,-99.99,,,0.00,482,weatherlink.com 1.10,2013-02-05 16:02:00,
2013-02-05 11:17:00,19.9,7.0,29.93,SE,131,3.0,-999.0,57,-99.99,,,0.00,405,weatherlink.com 1.10,2013-02-05 16:17:00,
2013-02-05 11:32:00,19.7,6.0,29.93,SE,145,2.0,-999.0,55,-99.99,,,0.00,364,weatherlink.com 1.10,2013-02-05 16:32:00,
2013-02-05 11:47:00,19.5,6.0,29.91,ESE,117,0.0,-999.0,56,-99.99,,,0.00,208,weatherlink.com 1.10,2013-02-05 16:47:00,
2013-02-05 12:02:00,19.7,6.0,29.90,East,100,1.0,-999.0,55,-99.99,,,0.00,267,weatherlink.com 1.10,2013-02-05 17:02:00,
2013-02-05 12:17:00,19.9,6.0,29.90,SE,131,1.0,-999.0,56,-99.99,,,0.00,371,weatherlink.com 1.10,2013-02-05 17:17:00,
2013-02-05 12:32:00,20.5,6.0,29.89,SE,144,3.0,-999.0,54,-99.99,,,0.00,289,weatherlink.com 1.10,2013-02-05 17:32:00,
2013-02-05 12:47:00,20.6,6.0,29.88,SE,130,4.0,-999.0,54,-99.99,,,0.00,63,weatherlink.com 1.10,2013-02-05 17:47:00,
2013-02-05 13:02:00,20.8,7.0,29.87,SE,127,2.0,-999.0,56,-99.99,,,0.00,211,weatherlink.com 1.10,2013-02-05 18:02:00,
2013-02-05 13:18:00,22.1,8.0,29.86,SSE,150,2.0,-999.0,55,-99.99,,,0.00,194,weatherlink.com 1.10,2013-02-05 18:18:00,
2013-02-05 13:33:00,23.2,9.0,29.86,East,100,1.0,-999.0,54,-99.99,,,0.00,475,weatherlink.com 1.10,2013-02-05 18:33:00,
2013-02-05 13:47:00,23.9,9.0,29.85,South,185,2.0,-999.0,53,-99.99,,,0.00,227,weatherlink.com 1.10,2013-02-05 18:47:00,
2013-02-05 14:02:00,24.2,9.0,29.84,ESE,120,0.0,-999.0,53,-99.99,,,0.00,185,weatherlink.com 1.10,2013-02-05 19:02:00,
2013-02-05 14:17:00,24.4,9.0,29.83,East,96,0.0,-999.0,52,-99.99,,,0.00,280,weatherlink.com 1.10,2013-02-05 19:17:00,
2013-02-05 14:32:00,23.9,8.0,29.83,NE,51,2.0,-999.0,52,-99.99,,,0.00,255,weatherlink.com 1.10,2013-02-05 19:32:00,
2013-02-05 14:47:00,23.6,8.0,29.83,ENE,73,1.0,-999.0,52,-99.99,,,0.00,192,weatherlink.com 1.10,2013-02-05 19:47:00,
2013-02-05 15:02:00,23.5,8.0,29.84,ENE,61,2.0,-999.0,52,-99.99,,,0.00,179,weatherlink.com 1.10,2013-02-05 20:02:00,
2013-02-05 15:17:00,23.8,9.0,29.83,East,96,2.0,-999.0,54,-99.99,,,0.00,160,weatherlink.com 1.10,2013-02-05 20:17:00,
2013-02-05 15:32:00,24.4,9.0,29.83,ESE,107,0.0,-999.0,52,-99.99,,,0.00,128,weatherlink.com 1.10,2013-02-05 20:32:00,
2013-02-05 15:47:00,24.1,8.0,29.82,East,86,3.0,-999.0,51,-99.99,,,0.00,106,weatherlink.com 1.10,2013-02-05 20:47:00,
2013-02-05 16:02:00,23.8,9.0,29.81,SE,145,4.0,-999.0,53,-99.99,,,0.00,95,weatherlink.com 1.10,2013-02-05 21:02:00,
2013-02-05 16:18:00,23.5,9.0,29.80,SE,126,0.0,-999.0,54,-99.99,,,0.00,69,weatherlink.com 1.10,2013-02-05 21:18:00,
2013-02-05 16:32:00,23.0,8.0,29.80,ESE,104,1.0,-999.0,54,-99.99,,,0.00,51,weatherlink.com 1.10,2013-02-05 21:32:00,
2013-02-05 16:47:00,22.7,9.0,29.80,ESE,113,0.0,-999.0,55,-99.99,,,0.00,37,weatherlink.com 1.10,2013-02-05 21:47:00,
2013-02-05 17:02:00,22.5,8.0,29.80,SSE,151,1.0,-999.0,55,-99.99,,,0.00,21,weatherlink.com 1.10,2013-02-05 22:02:00,
2013-02-05 17:17:00,22.2,9.0,29.81,ENE,71,1.0,-999.0,56,-99.99,,,0.00,0,weatherlink.com 1.10,2013-02-05 22:17:00,
2013-02-05 17:33:00,21.8,8.0,29.81,ESE,110,1.0,-999.0,56,-99.99,,,0.00,0,weatherlink.com 1.10,2013-02-05 22:33:00,
2013-02-05 17:49:00,21.0,8.0,29.81,SSE,154,2.0,-999.0,57,-99.99,,,0.00,0,weatherlink.com 1.10,2013-02-05 22:49:00,
2013-02-05 18:03:00,20.5,8.0,29.81,SSE,161,3.0,-999.0,58,-99.99,,,0.00,0,weatherlink.com 1.10,2013-02-05 23:03:00,
2013-02-05 18:18:00,20.3,8.0,29.82,SSE,161,2.0,-999.0,60,-99.99,,,0.00,0,weatherlink.com 1.10,2013-02-05 23:18:00,
2013-02-05 18:33:00,20.5,9.0,29.82,SSE,162,2.0,-999.0,60,-99.99,,,0.00,0,weatherlink.com 1.10,2013-02-05 23:33:00,
2013-02-05 18:48:00,20.6,9.0,29.82,SSE,161,0.0,-999.0,61,-99.99,,,0.00,0,weatherlink.com 1.10,2013-02-05 23:48:00,
2013-02-05 19:03:00,20.6,9.0,29.82,SSE,161,1.0,-999.0,62,-99.99,,,0.00,0,weatherlink.com 1.10,2013-02-06 00:03:00,
2013-02-05 19:18:00,20.8,10.0,29.82,SSE,160,2.0,-999.0,62,-99.99,,,0.00,0,weatherlink.com 1.10,2013-02-06 00:18:00,
2013-02-05 19:33:00,21.0,11.0,29.82,SSE,160,0.0,-999.0,64,-99.99,,,0.00,0,weatherlink.com 1.10,2013-02-06 00:33:00,
2013-02-05 19:48:00,21.3,11.0,29.81,SSE,161,0.0,-999.0,65,-99.99,,,0.00,0,weatherlink.com 1.10,2013-02-06 00:48:00,
2013-02-05 20:04:00,21.4,11.0,29.81,SSE,160,0.0,-999.0,65,-99.99,,,0.00,0,weatherlink.com 1.10,2013-02-06 01:04:00,
2013-02-05 20:18:00,21.3,10.0,29.81,SSE,161,1.0,-999.0,63,-99.99,,,0.00,0,weatherlink.com 1.10,2013-02-06 01:18:00,
2013-02-05 20:33:00,21.3,10.0,29.82,SSE,161,3.0,-999.0,63,-99.99,,,0.00,0,weatherlink.com 1.10,2013-02-06 01:33:00,
2013-02-05 20:48:00,21.1,11.0,29.82,SSE,160,0.0,-999.0,64,-99.99,,,0.00,0,weatherlink.com 1.10,2013-02-06 01:48:00,
2013-02-05 21:03:00,20.5,11.0,29.82,SSE,161,1.0,-999.0,66,-99.99,,,0.00,0,weatherlink.com 1.10,2013-02-06 02:03:00,
2013-02-05 21:18:00,19.5,10.0,29.81,SSE,160,2.0,-999.0,67,-99.99,,,0.00,0,weatherlink.com 1.10,2013-02-06 02:18:00,
2013-02-05 21:33:00,19.7,11.0,29.81,SSE,160,3.0,-999.0,70,-99.99,,,0.00,0,weatherlink.com 1.10,2013-02-06 02:33:00,
2013-02-05 21:48:00,19.7,11.0,29.81,SSE,161,0.0,-999.0,70,-99.99,,,0.00,0,weatherlink.com 1.10,2013-02-06 02:48:00,
2013-02-05 22:03:00,20.0,12.0,29.81,SSE,160,0.0,-999.0,70,-99.99,,,0.00,0,weatherlink.com 1.10,2013-02-06 03:03:00,
2013-02-05 22:18:00,20.2,12.0,29.81,SSE,161,2.0,-999.0,69,-99.99,,,0.00,0,weatherlink.com 1.10,2013-02-06 03:18:00,
2013-02-05 22:33:00,20.6,12.0,29.81,SSE,160,2.0,-999.0,69,-99.99,,,0.00,0,weatherlink.com 1.10,2013-02-06 03:33:00,
2013-02-05 22:48:00,21.1,12.0,29.81,SSE,161,2.0,-999.0,68,-99.99,,,0.00,0,weatherlink.com 1.10,2013-02-06 03:48:00,
2013-02-05 23:03:00,21.6,13.0,29.81,SSE,161,3.0,-999.0,68,-99.99,,,0.00,0,weatherlink.com 1.10,2013-02-06 04:03:00,
2013-02-05 23:18:00,21.9,13.0,29.80,SSE,152,2.0,-999.0,69,-99.99,,,0.00,0,weatherlink.com 1.10,2013-02-06 04:18:00,
2013-02-05 23:33:00,22.2,14.0,29.80,SSE,161,3.0,-999.0,71,-99.99,,,0.00,0,weatherlink.com 1.10,2013-02-06 04:33:00,
2013-02-05 23:48:00,22.5,15.0,29.81,SSE,161,4.0,-999.0,72,-99.99,,,0.00,0,weatherlink.com 1.10,2013-02-06 04:48:00,